User: anonymous   Login
Location: Milton
(43.5183°N, 79.8775°W)
Time: 00:24:24
(UTC+00:00)
Language:

AO-27 - Orbit

View from above orbital plane
View from above orbital plane
View from above satellite
View from above satellite

Ground track
Ground track

The orbit data is extracted from the following two-line orbital elements,

1 22825U 93061C   24106.58619524  .00000228  00000-0  10517-3 0  9990
2 22825  98.7952 158.6903 0007345 260.1665  99.8688 14.30456926593665
Epoch (UTC): 15 April 2024 14:04:07
Eccentricity: 0.0007345
inclination: 98.7952°
perigee height: 785 km
apogee height: 795 km
right ascension of ascending node: 158.6903°
argument of perigee: 260.1665°
revolutions per day: 14.30456926
mean anomaly at epoch: 99.8688°
orbit number at epoch: 59366

The dashed part of the orbit path shows where the satellite is in the earth's shadow,  

DLR